Location: Canazei
(46.4667°N, 11.7667°E)
Time: 17:18:14
(UTC+00:00)

COSMOS 2441 - Pass Details

Date: 21 April 2021
Orbit: 708 x 730 km, 98.1° (Epoch: 12 May)

Event Time Altitude Azimuth Distance (km) Brightness Sun altitude
Rises 02:21:58 0° 14° (NNE) 3,140 8.6 -17.8°
Reaches altitude 10° 02:24:15 10° 17° (NNE) 2,218 7.7 -17.5°
Maximum altitude 02:29:07 75° 103° (ESE) 752 4.5 -16.8°
Enters shadow 02:32:55 17° 187° (S) 1,793 6.0 -16.3°
